User: anonymous   Login
Location: Hopkins Observatory
(42.6965°N, 73.1843°W)
Time: 12:31:15
(UTC-05:00)
Language:

UOSAT-12 - Orbit

View from above orbital plane
View from above orbital plane
View from above satellite
View from above satellite

Ground track
Ground track

The orbit data is extracted from the following two-line orbital elements,

1 25693U 99021A   17053.50874080 -.00000039  00000-0  13750-4 0  9997
2 25693  64.5558 119.1188 0023978 323.3550  36.5914 14.80715581963184
Epoch (UTC): 22 February 2017 12:12:35
Eccentricity: 0.0023978
inclination: 64.5558°
perigee height: 610 km
apogee height: 644 km
right ascension of ascending node: 119.1188°
argument of perigee: 323.3550°
revolutions per day: 14.80715581
mean anomaly at epoch: 36.5914°
orbit number at epoch: 96318

The dashed part of the orbit path shows where the satellite is in the earth's shadow,  

DLR